Regional Weather Roundup
Issued by NWS

Home | Current Version | Previous Version | Graphics & Text | Print | Product List | Glossary On
Versions: 1 2 3 4 5 6 7 8 9 10 11 12 13 14 15 16 17 18 19 20 21 22 23 24 25 26 27 28 29 30 31 32 33 34 35 36 37 38 39 40 41 42 43 44 45 46 47 48 49 50
352
ASUS43 KTOP 191308
RWRKS

WEATHER ROUNDUP FOR KANSAS
NATIONAL WEATHER SERVICE GOODLAND KS
700 AM CST SUN FEB 19 2017

NOTE:  "FAIR" INDICATES FEW OR NO CLOUDS BELOW 12,000 FEET WITH NO
SIGNIFICANT WEATHER AND/OR OBSTRUCTIONS TO VISIBILITY.

KSZ001>006-013>018-027>032-041>047-191400-
NORTHWEST KANSAS

CITY           SKY/WX    TMP DP  RH WIND       PRES   REMARKS
GOODLAND       CLOUDY    45  36  70 S16       29.70R
HAYS           FOG       36  36 100 S9        29.85R VSB 1/4
HILL CITY      PTCLDY    46  45  96 S6        29.80S FOG
RUSSELL        CLOUDY    44  43  96 S13       29.84R FOG
$$

KSZ061>065-074>080-084>089-191400-
SOUTHWEST KANSAS

CITY           SKY/WX    TMP DP  RH WIND       PRES   REMARKS
DODGE CITY     FOG       45  44  97 S12       29.83S VSB 1/2
ELKHART          N/A     41  34  76 S9          N/A
GARDEN CITY    FOG       43  42  97 S9        29.81S VSB 1/4
GREAT BEND     CLOUDY    43  43 100 S9        29.86R FOG
LIBERAL        CLOUDY    48  45  87 S7        29.83R
PRATT          FOG       46  46 100 S9        29.86S VSB 1/4
$$

KSZ066>073-081>083-090>101-191400-
SOUTHEAST KANSAS

CITY           SKY/WX    TMP DP  RH WIND       PRES   REMARKS
CHANUTE        FOG       43  42  97 E6        29.94F VSB 1/4
COFFEYVILLE    CLOUDY    41  40  96 NE3       29.95S FOG
HUTCHINSON     FOG       45  45 100 SE5       29.88S VSB 1/4
MEDICINE LODGE   N/A     45  45 100 SE6       29.86S
NEWTON         FOG       44  44 100 S8        29.90R VSB 1/2
PARSONS        CLEAR     42  41  96 CALM      29.95S FOG
WICHITA INTL   CLOUDY    48  47  96 E7        29.88S FOG
WICHITA JABRA  FOG       44  44 100 SE5       29.89R VSB 1/4
WICHITA MCCONL CLOUDY    46  46 100 SE6       29.89S FOG
WINFIELD       CLOUDY    50  49  96 SE6       29.91S
$$

KSZ007>012-019>026-033>040-048>060-102>105-191400-
NORTHEAST KANSAS

CITY           SKY/WX    TMP DP  RH WIND       PRES   REMARKS
CONCORDIA      PTCLDY    48  48 100 S12       29.86R
EMPORIA        FOG       43  43 100 SE9       29.91F VSB 1/4
LAWRENCE       FOG       35  35 100 E6        29.94S VSB<1/4
MANHATTAN      CLOUDY    39  39 100 CALM      29.89F FOG
MARYSVILLE     PTCLDY    45  45 100 S8        29.88S
OLATHE IND     FOG       45  45 100 S9        29.96R VSB 3/4
OLATHE EXE     FOG       42  42 100 SE3       29.95S VSB 1/4
SALINA         PTCLDY    45  43  93 S6        29.89R FOG
TOPEKA BILLARD FOG       39  37  92 CALM      29.93S VSB 1/4
TOPEKA FORBES  CLEAR     45  44  97 S6        29.93R FOG
$$




USA.gov is the U.S. government's official web portal to all federal, state and local government web resources and services.